[[{"header":{"parameterUnit":"m.s-1","parameterCategory":1,"la1":30.2992,"la2":30.254,"lo1":-89.0895,"lo2":-89.0443,"dy":0.0025,"dx":0.0025,"nx":19,"ny":19,"refTime":"2026-03-26T09:00:00:Z","depth":0,"parameterNumber":2,"parameterNumberName":"U-component_of_WINDS"},"data":[0,0,0,-1.8726,-1.8728,-1.8818,-1.8818,-1.8942,-1.8943,0,0,0,0,0,0,0,0,0,0,0,-1.8703,-1.8704,-1.8726,-1.8728,-1.8818,-1.8818,-1.8942,-1.8943,0,0,0,0,0,0,0,0,0,0,0,-1.8703,-1.8704,-1.8705,-1.8728,-1.8818,-1.8818,-1.8941,-1.8871,0,0,0,0,0,0,0,0,0,0,-1.8782,-1.8765,-1.8704,-1.8705,-1.8729,-1.8818,-1.8818,-1.8867,-1.8875,-1.8904,0,-1.893,0,-1.8939,-1.8952,-1.8952,0,0,0,-1.8725,-1.8758,-1.8779,-1.8705,-1.873,-1.8817,-1.8776,-1.8871,-1.888,-1.8915,-1.8932,-1.8936,-1.8941,-1.8952,-1.8953,-1.9129,-1.913,0,0,-1.872,-1.8722,-1.8772,-1.8785,-1.877,-1.8774,-1.8779,-1.8877,-1.8896,-1.8933,-1.8939,-1.8943,-1.8953,-1.8954,-1.9128,-1.9129,0,0,0,-1.8708,-1.8719,-1.8736,-1.878,-1.8795,-1.8776,-1.8783,-1.8892,-1.8897,-1.8941,-1.8944,-1.8954,-1.8956,-1.9127,-1.9128,-1.9176,0,0,0,-1.8705,-1.8711,-1.8734,-1.8736,-1.8794,-1.8844,-1.8796,-1.8891,-1.8902,-1.8944,-1.8954,-1.8957,-1.9126,-1.9128,-1.9173,-1.9199,0,0,0,-1.8696,-1.871,-1.8724,-1.8736,-1.8775,-1.8843,-1.8854,-1.8893,-1.8904,-1.8952,-1.8957,-1.9125,-1.9127,-1.917,-1.9194,-1.9246,0,0,0,-1.8687,-1.8766,-1.8725,-1.8815,-1.8774,-1.8871,-1.8853,-1.8926,-1.8973,-1.8955,-1.9126,-1.9128,-1.9169,-1.9191,-1.9243,-1.929,-1.931,0,0,-1.8788,-1.8778,-1.8831,-1.8797,-1.8902,-1.8858,-1.897,-1.9012,-1.9016,-1.9091,-1.9096,-1.9174,-1.9194,-1.9245,-1.9421,-1.9436,0,0,0,-1.8864,-1.8901,-1.8929,-1.8973,-1.9007,-1.9038,-1.9062,-1.9078,-1.9142,-1.9055,-1.9207,-1.9218,-1.9249,-1.9272,-1.9285,-1.9311,-1.9139,-1.9138,-1.9138,-1.9008,-1.9008,-1.9095,-1.9106,-1.915,-1.9174,-1.921,-1.9235,-1.9223,-1.9259,-1.9281,-1.9388,-1.9414,-1.9424,-1.9452,-1.9306,-1.9306,-1.9307,-1.9307,-1.9156,-1.921,-1.9191,-1.9269,-1.9269,-1.9335,-1.9362,-1.9351,-1.9413,-1.937,-1.9397,-1.9351,-1.9442,-1.9466,-1.931,-1.931,-1.9309,-1.9309,-1.9309,-1.9251,-1.9277,-1.9294,-1.9358,-1.9408,-1.9417,-1.9477,-1.9475,-1.9473,-1.95,-1.9524,-1.9523,-1.9522,-1.9511,-1.9512,-1.9512,-1.9512,-1.9513,-1.9513,-1.9343,-1.9361,-1.9411,-1.9454,-1.9482,-1.9519,-1.9545,-1.9573,-1.9604,-1.9598,-1.9598,-1.9583,-1.945,-1.9417,-1.9519,-1.9518,-1.9517,-1.9516,-1.9516,-1.9493,-1.9459,-1.9537,-1.9565,-1.9615,-1.9665,-1.9661,-1.972,-1.9743,-1.9773,-1.9752,-1.9654,-1.9644,-1.9634,-1.9606,-1.9751,-1.9751,-1.9751,-1.9751,-1.9574,-1.9568,-1.9648,-1.9694,-1.9738,-1.9743,-1.9832,-1.9854,-1.987,-1.9885,-1.9864,-1.9827,-1.9816,-1.9813,-1.9799,-1.9773,-1.9957,-1.9957,-1.9958,-1.9666,-1.9665,-1.9741,-1.9756,-1.9795,-1.9829,-1.9913,-1.9968,-1.998,-1.9966,-1.9897,-1.9888,-1.9829,-1.9809,-1.9794,-1.9772,-1.9725,0,0]},{"header":{"parameterUnit":"m.s-1","parameterCategory":1,"la1":30.2992,"la2":30.254,"lo1":-89.0895,"lo2":-89.0443,"dy":0.0025,"dx":0.0025,"nx":19,"ny":19,"refTime":"2026-03-26T09:00:00:Z","depth":0,"parameterNumber":3,"parameterNumberName":"V-component_of_WINDS"},"data":[0,0,0,-0.0088,-0.0089,-0.0106,-0.0106,-0.0129,-0.013,0,0,0,0,0,0,0,0,0,0,0,-0.0083,-0.0084,-0.0088,-0.0089,-0.0106,-0.0106,-0.0129,-0.013,0,0,0,0,0,0,0,0,0,0,0,-0.0083,-0.0083,-0.0084,-0.0089,-0.0106,-0.0106,-0.0129,-0.0116,0,0,0,0,0,0,0,0,0,0,-0.0099,-0.0094,-0.0083,-0.0084,-0.0089,-0.0106,-0.0106,-0.0115,-0.0117,-0.0122,0,-0.0126,0,-0.0128,-0.0131,-0.0131,0,0,0,-0.0089,-0.0093,-0.0098,-0.0084,-0.0089,-0.0106,-0.0098,-0.0116,-0.0118,-0.0124,-0.0126,-0.0127,-0.0128,-0.0131,-0.0131,-0.0158,-0.0158,0,0,-0.0088,-0.0087,-0.0096,-0.0099,-0.0095,-0.0098,-0.0099,-0.0117,-0.012,-0.0126,-0.0127,-0.0129,-0.0131,-0.0132,-0.0158,-0.0158,0,0,0,-0.0085,-0.0086,-0.009,-0.0098,-0.0101,-0.0098,-0.0099,-0.0119,-0.012,-0.0128,-0.0129,-0.0132,-0.0132,-0.0157,-0.0158,-0.0162,0,0,0,-0.0085,-0.0084,-0.009,-0.0089,-0.01,-0.011,-0.0101,-0.0119,-0.0121,-0.0129,-0.0132,-0.0132,-0.0157,-0.0158,-0.0161,-0.0164,0,0,0,-0.0082,-0.0084,-0.0087,-0.0089,-0.0096,-0.011,-0.0112,-0.012,-0.0122,-0.0131,-0.0132,-0.0157,-0.0157,-0.0161,-0.0164,-0.0171,0,0,0,-0.008,-0.0091,-0.0087,-0.01,-0.0096,-0.0112,-0.0112,-0.0124,-0.0132,-0.0132,-0.0157,-0.0158,-0.0161,-0.0163,-0.017,-0.0176,-0.0179,0,0,-0.0093,-0.0093,-0.01,-0.0097,-0.0113,-0.0109,-0.0126,-0.0136,-0.0138,-0.0151,-0.0152,-0.0162,-0.0164,-0.0171,-0.0192,-0.0194,0,0,0,-0.0104,-0.011,-0.0114,-0.0122,-0.0128,-0.0134,-0.0141,-0.0144,-0.0155,-0.0144,-0.0166,-0.0167,-0.0171,-0.0174,-0.0176,-0.0179,-0.0159,-0.0159,-0.0159,-0.0123,-0.0124,-0.0137,-0.014,-0.0147,-0.0153,-0.0159,-0.0164,-0.0165,-0.017,-0.0174,-0.0186,-0.019,-0.0191,-0.0195,-0.0177,-0.0177,-0.0177,-0.0177,-0.0143,-0.0151,-0.0149,-0.0161,-0.0163,-0.0173,-0.0179,-0.0178,-0.0188,-0.0184,-0.0187,-0.0183,-0.0193,-0.0196,-0.0177,-0.0177,-0.0177,-0.0177,-0.0177,-0.0155,-0.0159,-0.0162,-0.0172,-0.018,-0.0183,-0.0192,-0.0193,-0.0195,-0.0198,-0.0202,-0.0202,-0.0203,-0.02,-0.02,-0.02,-0.02,-0.02,-0.02,-0.0167,-0.017,-0.0178,-0.0185,-0.0189,-0.0195,-0.02,-0.0205,-0.021,-0.021,-0.021,-0.021,-0.0193,-0.0189,-0.0201,-0.0201,-0.0201,-0.0201,-0.02,-0.0188,-0.0183,-0.0194,-0.0199,-0.0206,-0.0214,-0.0214,-0.0223,-0.0227,-0.0232,-0.023,-0.0218,-0.0217,-0.0216,-0.0213,-0.023,-0.023,-0.023,-0.023,-0.0199,-0.0198,-0.0209,-0.0216,-0.0222,-0.0224,-0.0236,-0.024,-0.0244,-0.0246,-0.0244,-0.024,-0.0238,-0.0239,-0.0237,-0.0234,-0.0256,-0.0256,-0.0256,-0.0211,-0.0211,-0.0222,-0.0224,-0.023,-0.0235,-0.0247,-0.0255,-0.0258,-0.0257,-0.0248,-0.0247,-0.024,-0.0238,-0.0237,-0.0235,-0.0229,0,0]}]]